Location: Beadle
(51.4667°N, 109.0000°W)
Time: 09:06:19
(UTC+00:00)

deb Explorer IX - Pass Details

Date: 04 June 2022
Orbit: 535 x 1068 km, 38.8° (Epoch: 04 July)

Event Time Altitude Azimuth Distance (km) Brightness Sun altitude
Rises 17:55:21 0° 255° (WSW) 3,851 ? 57.2°
Reaches altitude 10° 17:58:32 10° 244° (WSW) 2,895 ? 57.5°
Maximum altitude 18:04:15 27° 190° (S) 1,893 ? 58.0°
Drops below altitude 10° 18:09:44 10° 136° (SE) 2,751 ? 58.4°
Sets 18:12:41 0° 125° (SE) 3,626 ? 58.7°
